Total_Precipitation_Accumulation
0.04 0.06 0.11 0.11 0.11 0.12 0.14 0.16 0.21 0.24 0.21 0.24 0.41 0.61 0.65 0.83 1.12 1.45 1.83 2.08 2.43 2.78 3.14 3.56 3.63 3.88 4.20 4.81 5.30 5.58 5.68 5.63 5.41 5.12 4.78 4.60 4.60 4.58 4.32 4.08 3.91 3.78 3.66 3.70
0.08 0.08 0.06 0.07 0.10 0.11 0.13 0.17 0.21 0.25 0.21 0.23 0.43 0.65 0.75 1.07 1.40 1.45 1.64 1.80 2.00 2.44 2.78 3.11 3.29 3.37 3.80 4.41 4.87 5.08 4.91 4.93 4.80 4.60 4.55 4.53 4.79 4.51 4.21 4.04 3.89 3.57 3.53 3.64
0.08 0.09 0.05 0.05 0.06 0.09 0.12 0.12 0.17 0.24 0.24 0.31 0.49 0.90 1.07 1.24 1.38 1.40 1.49 1.64 1.76 2.04 2.36 2.70 2.85 2.99 3.23 3.36 3.66 3.88 4.10 4.13 4.07 4.08 4.06 4.16 4.41 4.26 4.12 3.97 3.87 3.46 3.28 3.27
0.06 0.05 0.06 0.06 0.07 0.09 0.12 0.11 0.11 0.17 0.28 0.45 0.60 1.21 1.41 1.33 1.37 1.49 1.48 1.44 1.68 1.98 1.98 2.11 2.38 2.54 2.83 3.02 3.23 3.32 3.43 3.60 3.68 3.80 3.72 3.59 3.50 3.51 3.52 3.59 3.53 3.50 3.32 3.21
0.06 0.06 0.06 0.08 0.08 0.07 0.09 0.09 0.11 0.21 0.33 0.47 0.56 0.95 1.34 1.62 1.69 1.48 1.40 1.28 1.49 1.63 1.54 1.53 1.73 1.89 2.18 2.44 2.68 2.84 2.98 3.14 3.39 3.52 3.46 3.44 3.23 3.23 3.32 3.36 3.38 3.37 3.30 3.22
0.07 0.06 0.06 0.06 0.06 0.06 0.07 0.12 0.20 0.37 0.56 0.84 0.68 0.84 1.30 1.58 1.82 1.58 1.33 1.24 1.35 1.32 1.29 1.40 1.56 1.68 1.85 2.18 2.38 2.50 2.65 2.75 2.97 3.14 3.24 3.34 3.30 3.21 3.18 3.17 3.16 3.14 3.15 3.05
0.13 0.13 0.10 0.07 0.07 0.08 0.09 0.20 0.63 1.03 1.32 1.31 0.85 0.87 1.26 1.23 1.25 1.27 1.22 1.26 1.29 1.22 1.17 1.17 1.26 1.42 1.62 1.88 2.08 2.16 2.29 2.40 2.48 2.60 2.81 3.00 3.00 3.00 2.84 2.76 2.81 2.82 2.64 2.55
0.18 0.25 0.16 0.10 0.10 0.11 0.13 0.21 0.69 1.09 1.13 1.13 0.94 1.20 1.55 1.25 1.15 1.08 1.14 1.24 1.22 1.09 1.04 1.06 1.16 1.22 1.32 1.52 1.76 1.85 1.98 2.11 2.27 2.33 2.47 2.62 2.64 2.63 2.47 2.56 2.57 2.49 2.25 2.19
0.12 0.13 0.09 0.08 0.10 0.14 0.20 0.22 0.32 0.60 0.69 0.86 1.05 1.35 1.59 1.26 1.16 1.27 1.37 1.34 1.28 1.03 0.90 0.92 0.93 0.97 1.01 1.12 1.30 1.45 1.71 1.87 1.99 2.10 2.24 2.29 2.26 2.34 2.32 2.41 2.54 2.38 2.32 2.17
0.08 0.09 0.08 0.08 0.10 0.14 0.18 0.19 0.26 0.52 0.77 0.94 1.04 1.44 1.78 1.67 1.46 1.38 1.44 1.29 1.02 0.84 0.75 0.71 0.71 0.71 0.81 0.94 1.08 1.28 1.46 1.53 1.65 1.88 2.04 1.97 2.19 2.28 2.28 2.29 2.21 2.20 2.25 2.22
0.07 0.06 0.08 0.10 0.13 0.16 0.21 0.24 0.33 0.49 0.56 0.80 1.19 1.43 1.38 1.37 1.27 1.30 1.28 1.11 0.89 0.75 0.67 0.68 0.68 0.70 0.78 0.86 1.03 1.24 1.47 1.60 1.61 1.72 1.88 1.99 2.07 2.19 2.21 2.13 2.03 2.08 2.15 2.18
0.08 0.08 0.12 0.18 0.19 0.18 0.19 0.22 0.32 0.49 0.48 0.54 0.85 1.13 0.80 0.82 0.82 0.90 0.96 0.84 0.79 0.77 0.69 0.75 0.80 0.80 0.83 0.94 1.10 1.29 1.46 1.64 1.72 1.89 2.14 2.27 2.17 2.13 2.16 2.11 1.98 1.89 1.85 1.94
0.12 0.13 0.21 0.42 0.51 0.31 0.20 0.20 0.23 0.29 0.31 0.36 0.68 0.91 0.61 0.66 0.78 0.90 0.98 0.98 0.95 0.87 0.71 0.75 0.94 1.01 0.96 1.04 1.23 1.47 1.65 1.80 1.94 2.09 2.31 2.41 2.25 2.14 2.16 2.07 1.89 1.77 1.71 1.78
0.13 0.16 0.23 0.49 0.57 0.43 0.32 0.25 0.21 0.25 0.33 0.32 0.38 0.61 0.60 0.67 0.85 0.95 0.99 1.00 0.90 0.81 0.78 0.85 0.94 0.99 1.16 1.23 1.35 1.56 1.63 1.80 1.91 1.91 2.07 2.21 2.13 1.98 1.89 1.87 1.83 1.82 1.81 1.77
0.11 0.14 0.15 0.19 0.26 0.32 0.34 0.29 0.23 0.20 0.23 0.36 0.37 0.45 0.56 0.71 0.75 0.92 0.98 0.92 0.87 0.82 0.82 0.89 1.01 1.02 1.06 1.14 1.16 1.26 1.29 1.49 1.52 1.58 1.67 1.75 1.70 1.70 1.66 1.62 1.58 1.63 1.69 1.66
0.20 0.20 0.18 0.18 0.20 0.24 0.27 0.28 0.23 0.16 0.15 0.18 0.31 0.54 0.58 0.63 0.69 0.84 0.85 0.82 0.86 0.94 0.98 1.02 1.09 1.20 1.11 1.06 1.02 0.98 1.06 1.25 1.42 1.54 1.48 1.49 1.54 1.47 1.43 1.45 1.44 1.49 1.57 1.69
0.39 0.35 0.32 0.28 0.24 0.29 0.34 0.29 0.24 0.17 0.16 0.17 0.35 0.63 0.63 0.67 0.77 0.91 0.96 0.95 0.84 0.85 0.92 1.05 1.16 1.20 1.03 1.00 0.98 1.01 1.04 1.15 1.27 1.37 1.45 1.52 1.56 1.51 1.45 1.50 1.60 1.61 1.75 1.81
0.47 0.52 0.46 0.40 0.48 0.62 0.41 0.29 0.27 0.30 0.27 0.26 0.33 0.43 0.51 0.67 0.73 0.78 0.84 0.98 0.99 0.99 1.07 1.13 1.13 1.13 1.10 1.06 1.08 1.08 1.07 1.14 1.27 1.30 1.40 1.52 1.56 1.52 1.53 1.53 1.56 1.68 1.85 1.92
0.37 0.55 0.57 0.54 0.63 0.55 0.46 0.39 0.38 0.45 0.51 0.42 0.51 0.49 0.55 0.62 0.70 0.89 0.82 0.85 0.84 1.00 1.05 1.10 1.12 1.14 1.19 1.19 1.27 1.26 1.19 1.23 1.35 1.47 1.53 1.50 1.56 1.63 1.69 1.72 1.75 1.82 1.87 1.89
0.47 0.60 0.75 0.69 0.83 0.84 0.71 0.60 0.52 0.56 0.91 0.70 0.67 0.69 0.78 0.84 0.99 1.20 1.02 0.90 0.94 1.01 0.98 1.03 1.02 1.09 1.21 1.24 1.39 1.49 1.49 1.47 1.53 1.67 1.74 1.76 1.87 1.98 1.95 2.04 2.17 2.20 2.19 2.14
0.98 0.98 0.89 0.90 1.02 1.03 0.81 0.69 0.65 1.11 1.36 0.88 0.78 0.85 0.85 0.90 1.03 1.09 1.12 1.12 1.05 0.88 0.84 0.90 1.01 1.02 1.13 1.33 1.55 1.73 1.74 1.68 1.76 1.89 2.03 2.18 2.27 2.46 2.61 2.71 2.62 2.53 2.53 2.53
1.16 1.26 1.24 1.27 1.45 1.38 0.87 0.82 1.18 1.45 1.12 1.12 1.00 0.95 0.95 0.90 0.97 1.05 1.08 1.07 0.92 0.90 0.89 0.95 1.08 1.09 1.15 1.35 1.56 1.76 1.82 1.85 2.03 2.17 2.35 2.48 2.68 2.79 2.91 3.29 3.33 3.31 3.21 2.93
1.30 1.37 1.38 1.44 1.55 1.28 1.10 1.25 1.34 1.32 1.30 1.36 1.39 1.21 1.11 1.04 1.05 1.09 1.03 0.95 0.87 0.88 0.89 0.96 1.12 1.25 1.30 1.43 1.68 1.96 2.01 2.07 2.20 2.35 2.57 2.72 2.81 2.96 3.11 3.27 3.27 3.27 3.20 2.94
1.48 1.24 1.41 1.60 1.68 1.47 1.39 1.39 1.42 1.40 1.34 1.35 1.44 1.56 1.53 1.28 1.15 1.16 1.11 1.02 1.00 1.05 1.02 1.07 1.20 1.37 1.56 1.69 1.89 2.14 2.20 2.34 2.41 2.48 2.60 2.71 2.81 2.94 3.13 3.28 3.21 3.15 3.08 3.04
1.49 1.53 1.74 2.03 1.99 1.80 1.66 1.68 1.77 1.64 1.51 1.54 1.55 1.59 1.66 1.37 1.16 1.11 1.19 1.16 1.16 1.25 1.29 1.30 1.38 1.52 1.74 1.90 2.06 2.14 2.20 2.41 2.60 2.59 2.63 2.72 2.75 2.78 2.91 2.99 3.10 3.04 2.97 3.00
1.52 1.74 2.05 2.28 2.08 2.15 1.98 1.67 1.74 1.84 1.69 1.69 1.64 1.57 1.45 1.34 1.28 1.31 1.33 1.32 1.32 1.43 1.46 1.47 1.48 1.60 1.79 1.95 2.16 2.26 2.39 2.54 2.69 2.75 2.66 2.69 2.73 2.74 2.76 2.73 2.64 2.65 2.59 2.55